Terminal Aerodrome Forecast
Issued by NWS

Home | Current Version | Previous Version | Text Only | Print | Product List | Glossary On
Versions: 1 2 3 4 5 6 7 8 9 10 11 12 13 14 15 16 17 18 19 20
000
FTUS43 KDVN 221433 AAB
TAFCID
TAF AMD
KCID 221433Z 2215/2312 20006KT P6SM BKN008
     FM221800 21007KT P6SM SCT030 BKN200
     FM230100 13005KT 6SM HZ SCT250=

USA.gov is the U.S. government's official web portal to all federal, state and local government web resources and services.